Temp
63 63 62 62 62 61 61 62 62 61 61 61 61 61 62 61 61 61 62 62 62 62 63 63 64 65 64 67 74 87 84 84 86 89 88 85 82 79 74 80 77 72 74 81 79 77 79
62 62 62 62 61 61 61 61 61 61 61 61 61 61 61 61 61 61 61 61 61 62 62 63 65 66 63 66 88 86 86 85 86 89 90 89 84 89 82 78 75 77 75 77 80 76 79
62 62 62 61 61 61 61 61 61 61 61 61 60 60 60 60 60 61 61 61 61 61 62 64 65 69 65 75 90 85 88 86 88 88 88 87 89 80 80 74 78 81 72 75 76 71 77
61 61 61 61 61 61 60 60 60 60 60 60 60 60 60 60 60 60 60 59 60 61 63 64 66 63 67 87 87 87 86 86 86 87 87 85 86 81 76 77 76 69 71 62 72 72 79
61 61 61 61 61 60 60 60 60 60 60 60 60 60 59 59 59 59 58 59 61 63 64 66 57 59 70 89 86 88 90 84 83 85 86 88 81 74 75 64 59 61 54 58 68 73 73
61 61 61 61 60 60 60 60 60 60 60 59 59 59 59 58 58 58 58 58 63 62 64 72 76 64 76 84 86 92 88 86 81 82 79 76 70 65 62 61 52 57 56 61 61 70 72
61 61 61 60 60 60 60 60 60 60 60 59 59 59 58 58 58 57 57 62 66 63 62 69 70 74 85 87 93 87 88 84 81 76 66 69 62 61 60 63 66 65 63 59 67 74 71
61 61 60 60 60 60 60 59 59 59 59 59 59 58 58 58 57 56 53 64 73 76 67 75 77 79 84 83 84 89 88 72 72 65 68 66 62 70 71 68 66 65 63 62 68 72 69
60 60 60 60 60 59 59 59 59 59 59 59 59 58 57 57 56 52 60 71 78 82 65 77 77 77 81 85 82 83 81 74 70 67 66 64 67 74 72 70 66 64 62 65 65 73 74
60 60 59 59 59 59 59 59 59 59 59 59 58 58 56 56 57 64 68 77 76 80 59 69 72 82 83 84 76 92 84 74 68 68 69 68 74 72 70 68 66 55 74 74 71 64 55
60 59 59 59 59 59 59 59 59 59 58 58 58 57 56 54 53 67 82 77 77 77 49 77 75 88 80 79 77 85 92 79 67 67 66 69 70 68 68 70 71 67 75 74 71 59 57
60 59 59 59 59 59 58 58 58 58 58 58 57 56 56 53 51 64 72 75 80 61 53 72 79 75 73 75 78 83 82 82 74 68 67 68 77 74 72 77 75 78 71 66 62 55 46
60 59 59 59 59 58 58 58 58 58 58 57 56 55 53 66 71 75 76 74 60 53 75 72 70 72 70 70 73 75 75 71 67 59 59 68 72 75 79 72 74 71 57 46 48 46 46
59 59 59 59 59 58 59 59 58 58 57 56 54 53 53 65 67 71 75 67 52 69 70 75 74 68 69 70 72 74 70 67 71 67 61 61 61 73 79 73 69 62 56 48 44 45 47
59 59 59 59 59 58 59 58 58 57 57 56 54 53 59 68 67 71 70 55 61 68 76 75 72 67 66 71 70 69 68 68 72 71 64 57 62 77 80 78 75 63 56 59 49 50 47
59 59 59 59 59 58 59 58 58 57 57 55 55 63 70 78 75 73 65 56 65 80 83 77 66 69 63 68 68 66 67 75 75 77 73 66 59 71 79 80 74 70 68 55 53 44 44
59 59 59 59 59 59 59 58 58 57 56 55 61 69 79 79 78 69 59 61 74 83 87 75 70 68 68 69 70 67 70 78 80 76 76 66 63 67 70 71 65 63 59 58 59 55 46
59 59 59 59 58 59 59 58 57 56 55 53 59 67 81 83 68 60 59 69 73 80 81 79 77 72 70 71 69 69 70 77 85 84 72 68 61 57 64 74 76 68 64 61 56 50 49
59 59 59 59 59 59 58 58 57 56 55 46 59 63 81 81 61 60 67 73 76 77 76 76 72 74 75 71 66 70 72 83 84 78 70 70 60 55 60 66 72 65 64 58 59 56 50
59 59 59 59 59 59 58 58 56 56 56 50 61 61 65 67 64 59 61 66 69 80 76 74 72 73 69 66 67 66 71 79 81 78 75 72 61 59 55 62 64 67 69 66 61 56 56
59 59 59 59 59 59 58 58 57 56 55 58 57 54 57 55 62 61 58 64 67 65 72 72 68 71 67 59 62 63 68 71 78 73 75 69 61 61 62 68 69 69 71 69 62 59 62
58 58 58 59 59 59 59 58 57 56 55 58 51 49 52 50 57 60 58 59 64 67 66 65 65 70 67 61 59 61 62 60 63 72 68 67 61 61 62 70 71 69 74 72 72 71 67
58 58 58 59 59 59 59 58 57 56 54 52 54 54 52 51 56 55 56 60 64 65 66 72 68 64 63 66 68 70 69 67 68 63 64 62 60 58 55 64 66 62 68 71 73 74 71
58 58 58 58 59 59 59 58 58 57 55 47 52 50 49 49 54 55 61 65 64 60 59 66 66 59 66 71 69 65 65 67 69 68 67 63 58 56 55 58 51 67 72 79 76 77 76
58 58 58 58 58 59 59 59 58 57 56 47 52 51 46 43 53 58 58 59 58 58 59 62 63 63 64 62 58 53 54 58 63 66 64 66 60 55 55 51 61 70 74 75 71 74 78
58 58 57 58 58 59 59 59 59 58 56 49 50 53 48 44 46 57 54 56 50 48 53 60 62 63 62 54 53 45 47 51 54 62 59 61 60 58 53 51 52 65 74 83 76 64 75
57 57 57 57 57 58 59 59 59 58 57 50 49 54 49 43 48 50 49 48 52 49 46 50 55 56 57 49 48 46 49 57 51 49 50 53 53 54 53 52 59 66 71 76 58 58 71
57 57 56 56 57 58 58 59 59 58 58 52 48 52 48 43 46 53 57 49 50 48 44 49 50 50 49 45 46 45 46 48 46 50 52 49 46 47 51 51 49 69 68 58 62 70 70
57 57 57 56 57 57 58 58 58 58 58 55 44 53 55 45 48 55 60 62 60 59 51 49 49 48 50 46 46 46 46 46 44 44 53 47 51 47 50 52 61 66 64 68 72 70 70
MSLP
1021.08 1020.51 1019.95 1019.37 1018.87 1018.33 1017.81 1017.25 1016.76 1016.33 1015.86 1015.38 1014.90 1014.50 1014.20 1013.97 1013.71 1013.46 1013.24 1013.02 1012.92 1012.86 1012.90 1012.91 1012.67 1012.34 1011.85 1010.86 1008.32 1005.98 1006.04 1006.23 1006.63 1006.94 1006.80 1007.10 1007.07 1007.08 1007.35 1007.51 1007.88 1008.18 1008.16 1008.24 1008.74 1009.12 1008.97
1021.39 1020.80 1020.22 1019.60 1018.97 1018.41 1017.89 1017.35 1016.77 1016.30 1015.83 1015.35 1014.89 1014.47 1014.14 1013.86 1013.62 1013.34 1013.07 1012.88 1012.81 1012.84 1012.89 1012.88 1012.65 1012.45 1011.82 1009.69 1006.03 1005.87 1006.02 1006.35 1006.63 1007.12 1007.33 1007.47 1007.30 1006.47 1007.08 1007.82 1008.10 1008.17 1008.51 1008.76 1008.59 1008.74 1008.55
1021.64 1021.05 1020.45 1019.81 1019.09 1018.48 1017.91 1017.35 1016.79 1016.30 1015.80 1015.30 1014.83 1014.39 1014.00 1013.72 1013.48 1013.19 1012.95 1012.79 1012.74 1012.85 1012.86 1012.77 1012.59 1012.36 1011.26 1007.68 1005.79 1005.98 1006.03 1006.49 1007.16 1007.28 1007.30 1007.59 1006.96 1007.03 1007.74 1008.40 1009.01 1008.69 1009.16 1009.07 1009.12 1008.56 1007.83
1021.79 1021.22 1020.62 1019.96 1019.25 1018.56 1017.99 1017.37 1016.79 1016.30 1015.77 1015.28 1014.75 1014.29 1013.87 1013.57 1013.30 1013.01 1012.78 1012.63 1012.63 1012.75 1012.73 1012.58 1012.52 1012.11 1009.65 1005.72 1005.76 1006.08 1006.02 1006.94 1007.02 1007.03 1007.45 1007.55 1007.03 1007.48 1008.25 1008.85 1009.43 1009.73 1009.84 1009.91 1009.53 1009.12 1007.82
1021.93 1021.34 1020.74 1020.06 1019.37 1018.63 1017.97 1017.35 1016.73 1016.16 1015.61 1015.11 1014.63 1014.14 1013.72 1013.39 1013.07 1012.79 1012.51 1012.34 1012.30 1012.37 1012.46 1012.38 1012.35 1011.53 1008.36 1005.11 1005.45 1005.17 1005.53 1006.62 1006.96 1006.91 1007.31 1007.31 1007.89 1008.62 1009.03 1009.69 1010.70 1011.13 1011.44 1010.90 1009.34 1009.13 1008.62
1022.18 1021.53 1020.83 1020.15 1019.44 1018.72 1017.96 1017.29 1016.63 1016.00 1015.37 1014.82 1014.34 1013.95 1013.50 1013.17 1012.87 1012.51 1012.10 1012.01 1011.85 1011.90 1012.19 1012.02 1011.28 1010.86 1007.26 1005.09 1004.61 1004.94 1006.27 1006.87 1007.45 1007.41 1007.64 1008.31 1009.25 1009.48 1010.35 1010.62 1011.49 1011.63 1011.54 1011.09 1010.42 1009.46 1008.63
1022.47 1021.78 1021.02 1020.23 1019.51 1018.73 1017.91 1017.20 1016.47 1015.82 1015.19 1014.57 1014.01 1013.53 1013.21 1012.96 1012.69 1012.36 1011.63 1011.62 1011.92 1011.56 1011.03 1009.66 1008.76 1007.72 1005.84 1004.63 1004.07 1004.98 1006.04 1006.89 1007.79 1008.48 1009.47 1009.91 1010.23 1010.20 1010.61 1010.95 1011.13 1011.67 1011.21 1010.77 1009.77 1009.79 1008.91
1022.73 1022.01 1021.24 1020.43 1019.63 1018.82 1017.93 1017.10 1016.42 1015.74 1015.08 1014.36 1013.66 1013.14 1012.86 1012.72 1012.60 1012.40 1012.36 1011.24 1008.97 1008.16 1008.49 1007.53 1007.31 1006.89 1005.35 1005.05 1004.97 1004.43 1005.59 1007.99 1009.03 1009.74 1009.79 1009.73 1009.73 1010.19 1010.75 1011.04 1011.08 1011.21 1010.97 1009.93 1009.31 1009.31 1009.40
1022.97 1022.23 1021.45 1020.61 1019.77 1018.91 1018.02 1017.10 1016.32 1015.56 1014.84 1014.08 1013.32 1012.84 1012.55 1012.44 1012.35 1012.38 1011.35 1009.18 1007.46 1007.33 1007.89 1006.30 1005.86 1005.54 1004.79 1004.30 1004.46 1004.37 1005.78 1008.48 1009.46 1009.43 1009.10 1008.94 1008.68 1009.66 1011.01 1011.01 1010.57 1010.74 1009.93 1009.32 1009.09 1008.52 1008.68
1023.30 1022.53 1021.65 1020.78 1019.91 1018.99 1018.02 1017.04 1016.11 1015.25 1014.50 1013.80 1013.04 1012.56 1012.32 1012.11 1012.44 1010.99 1009.76 1006.71 1006.87 1007.55 1007.90 1006.06 1004.88 1003.65 1003.64 1003.67 1004.02 1003.55 1005.00 1007.21 1009.26 1009.35 1009.26 1008.55 1007.59 1008.35 1009.97 1009.69 1010.21 1010.00 1008.58 1007.89 1008.45 1009.20 1009.49
1023.54 1022.74 1021.89 1021.01 1020.04 1019.04 1017.93 1016.83 1015.76 1014.85 1014.05 1013.38 1012.73 1012.23 1012.08 1012.10 1011.67 1010.28 1007.05 1006.76 1006.92 1007.34 1007.31 1004.83 1003.88 1002.40 1002.98 1003.70 1003.61 1003.14 1004.32 1005.55 1007.49 1008.46 1009.26 1007.75 1007.41 1007.71 1008.55 1008.85 1009.29 1008.92 1008.11 1008.13 1007.82 1009.53 1010.46
1023.71 1022.96 1022.08 1021.19 1020.16 1019.03 1017.94 1016.70 1015.56 1014.45 1013.53 1012.81 1012.25 1011.81 1011.82 1012.00 1011.66 1007.88 1006.72 1006.64 1006.42 1007.78 1006.17 1004.37 1003.22 1003.05 1003.68 1003.69 1003.49 1003.19 1003.35 1004.42 1007.09 1008.13 1008.31 1007.34 1006.40 1006.61 1007.40 1007.33 1007.70 1007.85 1008.59 1009.34 1009.89 1010.70 1012.40
1023.89 1023.04 1022.11 1021.13 1020.15 1019.03 1017.91 1016.68 1015.32 1014.00 1012.87 1012.03 1011.45 1011.18 1011.45 1010.31 1008.55 1006.75 1006.65 1007.11 1007.59 1007.23 1004.75 1004.14 1003.74 1003.59 1003.88 1004.05 1003.87 1003.69 1004.03 1004.92 1006.36 1007.76 1007.75 1006.46 1005.67 1005.86 1005.94 1006.64 1007.53 1007.94 1009.57 1011.14 1011.65 1012.46 1013.20
1024.07 1023.18 1022.21 1021.23 1020.18 1019.04 1017.81 1016.57 1015.21 1013.60 1012.32 1011.09 1010.29 1010.13 1009.83 1008.66 1007.11 1007.23 1007.08 1007.57 1007.43 1005.69 1004.38 1003.09 1003.38 1003.92 1004.12 1004.08 1003.83 1003.79 1004.52 1005.06 1005.34 1005.63 1006.45 1006.17 1005.19 1004.57 1004.51 1005.26 1006.19 1008.03 1009.39 1010.88 1013.03 1014.08 1013.79
1024.19 1023.30 1022.37 1021.30 1020.15 1018.99 1017.78 1016.47 1015.02 1013.38 1011.91 1010.63 1009.46 1009.55 1009.39 1006.47 1006.87 1007.72 1007.97 1008.09 1006.76 1004.95 1003.88 1003.26 1003.55 1003.99 1004.13 1003.66 1003.80 1003.93 1004.03 1004.32 1004.17 1004.53 1005.26 1005.34 1004.69 1003.62 1003.35 1004.18 1004.99 1007.36 1009.27 1010.84 1012.45 1014.30 1014.47
1024.45 1023.54 1022.50 1021.48 1020.33 1019.06 1017.70 1016.46 1015.16 1013.30 1011.56 1010.57 1009.98 1009.12 1007.52 1005.37 1006.31 1007.36 1008.20 1008.02 1006.07 1004.34 1003.21 1002.32 1002.77 1003.08 1003.90 1003.33 1003.86 1003.63 1003.24 1002.26 1002.80 1002.81 1003.07 1003.84 1004.17 1003.24 1003.17 1004.19 1005.24 1005.93 1008.60 1010.17 1011.67 1013.83 1015.26
1024.83 1023.87 1022.94 1021.77 1020.59 1019.35 1018.11 1016.62 1015.33 1013.70 1011.43 1010.03 1009.93 1008.78 1005.78 1005.19 1006.13 1007.73 1008.53 1007.48 1005.58 1003.81 1002.44 1001.81 1002.03 1002.75 1003.69 1003.74 1003.50 1003.27 1002.90 1001.73 1001.57 1001.68 1002.42 1003.09 1003.71 1003.62 1003.68 1004.04 1004.58 1006.57 1007.85 1009.00 1010.43 1012.02 1013.37
1025.32 1024.39 1023.29 1022.18 1021.02 1019.68 1018.31 1016.92 1015.37 1014.26 1012.05 1010.56 1010.72 1009.12 1005.96 1005.59 1007.34 1008.30 1008.43 1006.94 1005.47 1004.38 1002.88 1002.42 1002.16 1002.67 1003.27 1003.57 1003.83 1003.91 1003.86 1002.91 1001.89 1001.07 1002.10 1002.55 1003.83 1004.46 1004.06 1002.98 1003.23 1004.53 1005.95 1007.29 1009.37 1011.86 1011.76
1025.63 1024.76 1023.80 1022.81 1021.50 1020.19 1018.84 1017.37 1015.96 1014.54 1014.15 1013.86 1012.36 1010.03 1006.64 1006.54 1008.58 1009.50 1008.33 1007.28 1006.18 1005.34 1004.93 1004.41 1004.59 1004.67 1004.12 1004.76 1005.00 1005.07 1004.70 1003.64 1002.77 1002.50 1002.65 1002.71 1004.31 1005.00 1004.77 1004.04 1004.49 1004.53 1005.59 1006.37 1007.57 1009.25 1010.01
1026.01 1025.23 1024.34 1023.36 1022.27 1021.09 1019.81 1018.32 1016.47 1014.68 1013.51 1013.67 1012.72 1011.86 1010.31 1009.44 1010.18 1010.59 1009.97 1008.94 1007.71 1006.52 1006.41 1006.53 1006.75 1005.73 1005.90 1006.37 1006.36 1006.25 1005.35 1004.94 1004.30 1004.01 1003.46 1003.46 1004.84 1005.59 1005.94 1005.22 1004.63 1004.07 1004.65 1004.92 1005.83 1007.64 1008.27
1026.29 1025.62 1024.87 1023.98 1022.96 1021.88 1020.76 1019.41 1017.56 1015.27 1013.30 1013.31 1014.07 1015.10 1014.62 1013.34 1012.07 1011.89 1010.91 1010.33 1009.35 1008.68 1007.97 1007.84 1007.82 1008.19 1008.37 1008.13 1007.95 1007.75 1006.99 1005.96 1005.23 1005.00 1005.22 1005.41 1005.91 1005.71 1005.45 1004.99 1004.13 1003.76 1003.88 1004.30 1004.60 1005.25 1005.62
1026.52 1025.89 1025.18 1024.40 1023.56 1022.58 1021.56 1020.54 1019.24 1017.19 1014.61 1014.86 1016.95 1017.26 1016.06 1015.17 1014.08 1012.92 1012.46 1012.20 1011.25 1010.42 1009.84 1009.64 1009.57 1009.40 1009.41 1009.75 1010.10 1009.14 1008.46 1007.75 1007.07 1005.99 1006.45 1006.58 1006.68 1006.52 1005.93 1004.85 1004.27 1003.54 1002.86 1002.61 1003.44 1003.75 1003.79
1026.71 1026.15 1025.58 1024.91 1024.12 1023.29 1022.40 1021.45 1020.45 1019.27 1017.31 1018.33 1018.47 1017.96 1017.73 1016.58 1015.56 1014.76 1014.51 1013.48 1012.74 1011.92 1011.06 1010.93 1010.71 1010.12 1010.23 1010.63 1010.13 1009.01 1008.23 1007.82 1007.60 1007.41 1007.26 1007.31 1007.25 1007.51 1006.97 1005.73 1004.84 1003.86 1002.61 1002.17 1001.93 1001.91 1002.39
1026.89 1026.41 1025.90 1025.33 1024.67 1023.99 1023.25 1022.51 1021.70 1020.96 1020.68 1020.89 1019.93 1019.39 1019.06 1018.19 1017.04 1016.49 1015.36 1014.38 1013.87 1013.61 1013.00 1012.13 1011.83 1011.67 1011.09 1010.17 1009.19 1008.57 1008.06 1007.61 1007.25 1006.87 1006.97 1007.33 1007.59 1007.77 1007.55 1006.64 1005.73 1003.50 1002.20 1001.82 1001.29 1001.24 1001.08
1026.92 1026.55 1026.11 1025.61 1025.01 1024.38 1023.69 1023.08 1022.48 1021.86 1021.36 1021.17 1020.41 1020.26 1020.29 1019.54 1018.31 1016.92 1016.05 1015.42 1014.69 1014.32 1013.88 1013.26 1013.17 1012.82 1012.01 1011.13 1010.64 1010.23 1009.46 1008.76 1007.64 1006.68 1006.42 1006.51 1007.22 1007.97 1007.90 1007.42 1006.02 1003.55 1002.16 1001.73 1001.42 1001.44 1001.01
1026.93 1026.57 1026.22 1025.83 1025.35 1024.83 1024.25 1023.63 1023.07 1022.57 1021.97 1021.45 1021.06 1020.53 1020.62 1020.55 1019.23 1018.02 1016.98 1016.42 1016.21 1015.90 1015.20 1014.22 1013.63 1012.53 1012.27 1012.44 1012.49 1012.29 1011.69 1010.67 1009.72 1008.02 1006.92 1007.29 1007.35 1008.21 1008.46 1008.04 1006.62 1005.06 1003.89 1002.04 1001.50 1002.65 1003.81
1026.79 1026.59 1026.28 1025.95 1025.56 1025.05 1024.58 1024.15 1023.63 1023.08 1022.54 1022.33 1021.75 1021.17 1021.00 1021.09 1019.33 1018.47 1017.70 1017.41 1017.11 1017.01 1016.84 1015.98 1015.54 1014.29 1013.84 1014.11 1014.21 1013.94 1013.13 1011.87 1011.61 1010.66 1009.85 1009.21 1008.94 1009.15 1008.99 1008.24 1006.84 1007.01 1004.85 1002.40 1004.26 1007.03 1005.65
1026.57 1026.47 1026.28 1026.01 1025.68 1025.30 1024.86 1024.40 1024.08 1023.69 1023.16 1022.80 1022.27 1021.74 1021.90 1021.65 1019.57 1018.44 1017.78 1017.80 1017.75 1017.62 1017.53 1016.63 1016.19 1015.94 1015.67 1015.99 1016.03 1015.63 1014.92 1014.32 1013.57 1012.33 1011.51 1011.38 1011.34 1010.90 1009.88 1008.96 1008.77 1008.05 1006.40 1007.56 1009.57 1008.45 1006.96
1026.36 1026.35 1026.20 1025.95 1025.61 1025.26 1024.94 1024.62 1024.29 1024.01 1023.66 1023.24 1023.03 1021.90 1021.74 1021.90 1019.56 1018.03 1017.37 1016.78 1016.77 1016.52 1017.02 1016.90 1017.05 1016.87 1016.62 1017.03 1017.32 1016.96 1016.62 1015.74 1015.33 1014.24 1012.69 1012.92 1012.87 1012.71 1012.03 1011.03 1010.34 1010.10 1009.96 1009.96 1009.56 1008.50 1007.03
Wind_Speed
22 23 23 23 21 21 22 22 21 20 19 17 16 14 13 11 11 10 10 10 9 9 9 9 10 10 3 3 10 2 9 9 6 4 5 3 6 4 1 1 1 1 3 5 4 4 11
23 23 23 23 23 22 22 22 22 21 20 18 17 15 14 12 10 10 9 8 8 9 8 8 8 9 0 2 4 8 8 5 2 1 6 7 9 8 4 2 2 1 2 7 6 3 5
23 23 23 23 23 23 23 22 22 22 21 20 18 16 14 12 11 10 9 9 9 8 7 6 6 4 0 13 3 7 9 4 6 11 4 9 6 17 5 4 5 10 4 2 6 8 11
23 24 24 23 23 23 22 23 22 22 21 20 18 17 15 13 12 11 10 10 10 8 6 7 4 2 8 6 7 7 4 5 6 8 5 6 7 8 6 4 5 9 7 9 2 10 5
23 23 23 24 24 24 24 23 23 21 20 18 18 17 15 13 13 12 10 11 9 6 5 3 1 1 10 10 7 8 7 6 3 0 7 9 5 4 6 5 5 5 4 11 8 8 7
24 23 23 24 24 25 24 24 23 22 21 19 18 16 15 14 12 11 13 7 2 5 4 5 6 3 5 5 3 7 9 12 9 4 6 10 6 3 4 6 2 2 1 5 7 8 2
24 24 25 25 25 25 26 25 24 23 22 21 19 16 14 14 11 10 8 2 4 2 1 10 7 5 5 2 4 4 10 15 7 9 6 4 5 3 6 4 3 4 6 10 14 10 2
25 25 26 25 26 26 26 26 25 24 22 21 19 17 14 13 10 8 1 3 8 4 6 15 6 8 9 2 5 6 8 9 5 3 3 1 1 4 6 3 2 3 6 10 12 6 4
24 25 25 26 26 26 26 26 25 24 23 21 20 17 14 12 8 1 4 10 5 10 2 6 9 7 8 8 6 7 9 7 3 1 3 4 7 1 2 2 10 6 5 8 7 8 12
24 25 26 26 27 27 27 27 26 25 24 22 20 17 12 11 3 2 6 7 2 6 6 8 3 8 5 6 3 6 12 11 1 5 4 3 6 5 7 9 6 5 7 7 5 1 2
25 26 26 27 27 28 28 28 28 27 25 22 19 16 9 4 3 3 7 4 6 5 5 4 4 3 4 8 3 5 13 6 11 10 5 9 5 6 8 8 14 11 10 5 2 6 5
25 26 26 27 28 28 29 30 30 30 27 24 18 13 5 3 2 11 9 7 5 7 5 3 5 4 5 5 5 5 4 9 4 6 4 8 2 5 6 12 19 3 0 7 6 2 5
25 26 27 28 28 29 29 30 31 31 30 26 19 9 5 2 6 3 5 5 6 4 3 5 6 5 6 6 4 6 4 4 8 4 6 4 6 4 9 7 11 3 8 3 6 7 1
25 26 27 28 28 29 30 31 32 33 32 29 21 4 11 7 4 7 4 7 3 6 4 3 7 4 8 5 7 4 5 5 7 3 3 4 8 10 10 8 8 5 8 7 4 3 5
25 26 28 29 30 31 31 32 33 34 34 30 16 1 2 6 8 2 7 5 7 4 4 2 4 4 5 6 5 5 8 8 10 10 9 5 6 4 6 7 8 3 4 2 10 5 4
25 26 28 29 31 32 34 33 33 36 36 27 3 2 4 2 9 5 6 5 5 4 9 3 2 3 6 6 4 7 8 8 9 13 7 5 3 6 3 6 4 7 11 3 4 6 4
25 26 27 30 31 32 33 35 34 35 38 19 2 4 5 9 5 6 3 6 7 9 18 2 1 3 2 2 4 4 3 5 6 2 8 4 4 7 4 6 10 4 3 5 7 4 7
23 25 27 29 31 33 35 36 37 34 35 10 3 3 1 5 5 1 1 4 6 9 8 8 3 3 3 3 4 9 7 12 14 7 4 1 6 1 4 9 5 5 6 6 6 5 2
23 25 27 28 31 33 35 37 38 36 23 4 3 4 4 5 3 5 8 6 4 15 12 10 14 11 6 7 6 10 7 9 19 8 1 2 2 4 11 9 5 2 1 3 7 5 7
23 24 26 28 30 31 33 36 39 39 33 3 3 5 7 6 2 3 6 7 9 9 9 9 8 8 9 10 8 6 14 10 11 9 16 6 3 7 7 10 3 7 6 8 8 5 7
23 24 24 26 28 30 32 34 38 42 39 3 6 2 1 5 6 8 2 5 8 10 8 14 7 13 7 6 7 8 7 8 16 9 12 5 2 6 4 7 3 4 4 7 5 5 8
20 22 23 25 26 28 30 32 34 40 35 7 5 5 6 4 6 5 11 9 9 8 6 8 9 12 5 6 3 8 4 4 4 11 8 5 4 5 7 7 9 5 9 6 7 10 4
19 20 21 23 24 26 28 30 31 34 21 5 4 4 4 6 7 5 6 6 7 7 4 8 11 6 6 9 14 13 7 6 7 4 4 2 2 5 7 5 7 6 4 3 5 6 10
16 18 19 21 22 22 24 26 27 28 22 1 4 1 4 4 4 2 7 7 9 8 4 6 9 7 8 17 8 4 5 8 9 11 9 6 1 4 5 6 4 10 4 10 9 6 6
14 16 18 19 21 22 22 23 25 25 25 2 4 4 3 3 4 4 10 5 4 7 6 3 4 5 10 7 6 7 7 8 7 8 8 10 5 2 4 4 7 9 4 2 4 6 5
14 15 16 17 19 20 21 22 22 23 24 4 3 3 3 2 3 5 4 4 3 5 8 5 8 9 7 2 3 2 3 2 6 12 3 4 2 6 3 3 6 6 21 13 4 5 26
12 13 14 15 16 18 20 21 21 22 21 5 3 6 3 2 4 4 1 1 3 4 3 4 8 10 6 4 1 3 4 5 3 5 6 7 5 3 4 4 2 18 21 9 9 11 27
10 11 12 13 14 15 17 18 19 19 19 8 5 4 3 2 7 4 1 1 4 2 3 5 6 7 5 7 4 3 4 2 3 5 6 2 2 3 4 3 1 22 10 12 6 15 21
9 11 11 11 12 13 14 16 17 16 16 12 3 5 3 3 8 5 14 17 14 15 4 2 6 4 4 4 4 3 3 3 1 5 6 4 5 3 2 2 4 6 4 5 10 14 17
Wind_Direction
9 7 5 3 1 0 0 360 0 359 358 358 355 351 346 338 331 321 316 311 313 316 322 330 331 332 334 20 252 162 116 135 141 186 246 287 300 266 276 170 190 139 259 326 193 264 212
8 7 5 2 359 358 357 357 357 358 356 354 352 350 345 342 334 324 314 307 310 315 323 328 324 324 354 295 223 149 149 149 188 349 10 344 281 288 74 300 345 334 252 4 22 20 249
8 5 3 0 358 356 354 354 354 355 354 353 351 347 344 339 335 326 314 306 306 312 315 313 308 298 320 236 167 161 167 147 74 45 57 358 36 59 348 13 3 30 10 158 344 285 295
7 4 0 358 356 354 353 352 351 349 350 351 349 345 339 335 330 323 313 302 298 302 294 278 269 267 248 235 172 164 201 84 82 87 77 322 23 93 75 252 44 23 41 359 109 273 287
7 4 0 358 355 352 351 350 348 347 345 343 344 343 336 330 325 319 307 300 293 287 241 252 170 187 269 302 165 194 143 139 97 321 72 75 39 92 6 74 28 346 290 309 295 180 341
7 4 0 357 353 350 348 348 347 346 344 342 338 335 334 329 324 316 307 265 239 305 199 206 256 330 271 235 179 128 90 81 54 335 23 36 31 79 24 59 206 281 307 298 276 339 143
5 2 359 355 352 349 347 346 345 344 342 338 335 332 328 330 322 328 347 85 28 2 233 194 200 248 290 275 158 148 124 77 33 52 28 15 47 81 150 163 171 203 286 303 282 296 3
2 358 355 352 350 348 345 344 343 341 339 336 332 330 327 329 322 332 306 173 216 175 302 221 231 262 279 90 309 169 74 77 66 97 211 328 316 138 102 169 119 243 219 267 293 220 231
359 356 353 350 349 347 344 341 340 338 338 335 330 327 326 328 322 274 209 231 117 49 31 284 187 202 235 126 216 241 98 146 108 178 218 158 238 76 76 53 352 320 260 273 235 283 211
357 355 352 350 347 345 342 340 339 338 337 333 327 325 325 326 303 248 246 252 268 137 57 282 217 259 198 134 308 215 141 127 164 227 341 20 296 178 134 118 228 316 262 156 244 126 146
358 355 352 350 347 344 342 340 338 337 335 332 327 320 317 284 306 202 238 23 130 59 20 216 228 220 142 145 202 300 177 67 154 195 155 243 202 194 160 184 177 227 253 301 195 106 91
356 355 352 350 348 345 343 341 339 336 334 332 326 311 313 154 221 243 311 310 58 48 272 244 152 149 92 204 219 262 263 76 109 136 269 263 277 169 137 195 192 207 251 8 20 35 67
356 355 353 351 349 346 345 343 339 336 334 331 323 288 211 296 222 337 297 46 53 145 296 200 177 157 182 216 252 175 168 167 165 115 247 282 232 124 156 171 203 189 61 349 1 13 221
357 356 354 352 350 348 346 345 342 337 336 333 325 225 216 233 270 0 46 52 75 242 264 226 142 97 176 181 245 213 148 226 270 160 86 211 328 170 180 175 162 168 144 154 130 347 310
358 357 355 353 351 350 349 348 345 340 339 336 323 191 217 250 207 104 68 54 214 255 261 8 66 155 276 237 188 164 212 213 215 168 179 151 270 258 160 145 144 204 66 125 102 359 26
357 358 356 354 353 351 350 350 348 343 339 338 354 345 253 160 138 75 75 235 256 226 311 278 82 155 170 248 168 157 183 218 229 185 164 231 288 217 180 112 25 164 158 84 29 109 65
357 357 357 355 354 352 352 350 351 348 340 332 30 31 266 118 79 54 144 242 284 299 319 154 264 20 131 3 227 285 285 329 174 40 149 193 123 289 111 200 171 96 206 70 110 111 153
358 358 357 356 355 353 354 353 350 355 344 39 354 37 268 107 44 42 195 233 276 323 349 352 38 96 75 14 24 39 352 359 345 158 151 207 126 319 268 279 173 108 162 144 120 224 220
358 357 357 357 357 356 356 353 351 351 6 314 32 279 2 71 48 326 307 326 329 15 9 358 10 11 358 30 51 34 5 345 358 354 149 211 28 9 350 360 6 281 83 106 99 105 193
358 358 358 358 358 358 358 356 352 350 352 131 56 21 334 24 69 18 347 342 1 353 43 8 35 37 8 27 14 19 7 358 346 8 11 47 101 150 182 225 208 313 178 177 127 131 164
359 359 358 358 359 358 0 0 356 352 346 100 20 5 88 330 342 339 355 1 15 5 8 30 29 26 11 4 7 15 349 339 340 28 4 43 356 342 283 238 265 280 179 211 205 158 163
357 359 359 358 359 359 1 3 4 358 344 68 61 27 348 298 306 12 6 357 18 346 13 352 359 337 13 48 343 309 327 357 269 324 359 358 289 34 315 324 356 316 329 216 193 199 287
354 357 359 360 0 0 1 4 7 9 2 53 331 329 103 293 345 36 345 335 6 360 314 26 11 4 45 348 305 268 237 238 235 276 330 273 59 29 280 343 341 1 289 230 257 176 173
349 353 356 358 1 1 2 4 8 10 19 121 280 73 42 301 31 355 335 356 20 358 293 332 29 32 302 309 281 294 289 246 246 247 178 247 133 157 247 20 344 237 282 254 215 287 261
342 349 354 356 358 1 1 4 6 7 9 25 309 44 53 307 313 346 349 6 353 346 351 292 8 247 288 321 3 360 340 357 299 255 247 200 166 236 162 182 269 303 283 281 187 264 237
333 343 351 354 355 358 360 2 5 7 4 9 313 340 75 87 259 286 307 7 353 330 345 319 327 322 2 67 73 203 240 285 317 324 42 70 177 147 128 163 224 332 331 294 145 224 3
325 333 343 348 352 354 355 357 1 4 2 359 292 356 66 3 255 37 61 296 345 7 288 326 334 339 20 17 73 190 248 301 296 324 323 336 345 189 183 208 281 335 330 325 62 320 324
310 322 332 338 344 348 350 350 356 1 2 8 279 18 62 292 278 255 43 45 340 193 175 286 6 352 2 42 42 318 35 337 344 275 326 43 342 339 340 185 289 351 23 52 306 319 321
299 306 315 323 332 339 346 343 346 355 0 4 326 319 320 184 247 239 266 254 212 214 153 285 179 223 222 61 18 4 355 347 338 291 343 44 122 245 111 244 165 25 76 1 337 323 327